Location: Croydon
(51.3762°N, 0.0982°W)
Time: 15:34:57
(UTC+01:00)

Envisat - Pass Details

Date: 21 February 2019
Orbit: 764 x 766 km, 98.1° (Epoch: 16 October)

Event Time Altitude Azimuth Distance (km) Brightness Sun altitude
Rises 18:15:45 0° 158° (SSE) 3,220 6.1 -8.4°
Reaches altitude 10° 18:18:03 10° 157° (SSE) 2,298 5.3 -8.8°
Maximum altitude 18:23:06 76° 73° (ENE) 795 2.9 -9.6°
Drops below altitude 10° 18:28:12 10° 348° (NNW) 2,314 5.6 -10.4°
Sets 18:30:31 0° 347° (NNW) 3,245 6.4 -10.7°
